Wind_Speed
40 38 35 32 31 34 37 31 35 32 29 34 30 30 28 26 30 31 36 38 39 41 41 40 40 40 42 42 45 46 46 45 44 43 42 42 41 42 40 38 37 37 36 33 31 30 30 29 26
47 43 40 37 35 36 36 28 28 29 31 27 27 25 24 27 24 27 28 29 30 33 36 39 39 39 39 40 41 42 44 46 46 47 47 45 45 45 45 44 42 41 41 38 36 34 31 31 30
54 51 46 43 42 41 30 31 33 36 30 29 28 26 24 26 23 26 24 26 27 26 26 28 31 32 34 37 38 38 39 39 39 42 44 46 49 50 50 49 47 45 44 42 43 41 36 35 32
60 56 52 49 49 42 37 36 44 36 35 34 33 30 29 28 27 26 23 23 23 24 22 22 22 21 25 27 25 22 22 22 24 25 28 32 39 44 49 51 48 47 47 47 46 44 41 39 37
65 62 58 55 55 45 45 46 43 42 41 39 37 35 35 32 32 31 29 28 27 25 25 25 26 24 24 23 25 23 20 20 21 22 22 24 27 32 36 40 45 47 48 47 47 47 46 45 42
72 68 64 62 60 51 53 52 48 47 47 46 43 42 41 39 38 38 36 35 33 32 30 29 28 29 27 29 29 28 24 21 23 25 24 25 25 23 23 28 32 37 41 43 46 48 48 47 47
74 72 69 68 60 61 59 59 54 54 51 51 51 47 47 46 44 41 43 41 39 38 38 37 35 35 34 32 32 33 31 31 28 28 31 31 28 27 26 24 24 25 26 29 34 40 46 49 50
75 75 74 72 69 67 66 64 62 60 58 58 56 55 52 54 50 50 48 47 46 44 44 44 42 42 42 41 38 37 36 35 35 35 33 37 35 33 34 33 31 30 28 27 29 29 35 42 47
81 77 75 70 68 72 73 71 69 67 66 64 62 60 57 62 59 57 54 53 53 51 50 50 51 50 49 48 46 45 43 42 42 41 40 41 41 41 40 40 38 35 31 33 32 34 31 30 35
85 83 79 79 74 72 70 72 71 72 73 69 68 67 67 66 66 63 63 61 61 60 58 57 57 57 58 56 55 53 50 50 49 50 48 46 43 44 45 45 45 42 41 39 38 36 35 31 30
82 85 86 83 79 78 78 76 75 75 73 70 71 73 75 73 73 73 71 70 68 68 67 65 64 64 64 64 63 62 59 57 58 57 55 54 51 50 50 49 50 49 47 44 44 42 39 39 37
87 83 83 83 80 79 79 80 81 81 78 78 77 75 74 75 74 74 73 74 75 77 76 75 73 72 71 70 70 69 67 66 65 64 64 63 61 60 57 57 56 53 53 50 49 46 44 44 44
92 89 86 86 85 85 83 81 81 81 82 83 80 79 79 79 80 81 81 80 80 79 80 81 79 79 79 77 77 77 77 76 73 71 71 71 70 67 65 64 59 60 58 60 56 54 48 47 45
95 95 89 88 89 90 87 87 89 87 87 87 87 87 85 86 87 87 87 86 86 87 87 89 89 88 89 87 86 85 84 84 83 82 79 77 75 73 72 71 66 65 62 65 64 62 57 54 53
89 90 93 92 89 92 92 90 92 94 93 94 94 95 94 94 95 95 95 94 94 94 94 93 94 95 96 94 95 95 94 92 91 90 88 87 83 81 78 76 72 68 67 66 67 67 66 64 61
80 84 88 88 92 89 93 96 96 100 99 98 98 98 99 99 101 102 100 100 100 99 99 99 99 99 99 101 99 100 100 98 98 96 93 94 91 88 86 83 82 78 73 70 69 71 72 69 67
73 73 73 71 71 74 80 82 82 83 89 95 100 101 105 104 103 102 100 100 99 101 102 104 103 104 103 104 103 103 105 102 101 103 102 100 99 96 94 90 89 88 84 80 77 74 75 76 75
73 71 71 69 70 71 73 76 76 75 75 77 79 79 81 83 88 90 94 99 100 101 103 105 107 107 106 105 105 104 103 105 106 106 106 104 106 102 98 95 93 93 91 87 84 81 78 81 81
74 73 73 72 73 75 77 77 79 75 75 75 78 80 82 83 86 87 88 89 91 94 94 98 100 104 106 107 106 107 107 108 108 108 108 108 109 105 100 97 94 93 91 91 89 86 87 83 84
80 78 78 77 79 80 80 80 78 80 81 82 83 83 87 88 89 88 89 90 91 92 97 101 104 106 106 105 103 103 103 105 106 108 109 111 109 106 102 97 95 94 91 89 88 89 92 90 90
81 80 81 82 83 84 85 83 85 86 87 88 86 88 90 93 94 91 90 89 92 97 100 103 105 103 99 97 97 96 93 93 97 103 104 106 108 107 106 101 102 98 93 95 97 96 95 94 97
84 86 87 86 86 87 88 87 90 91 89 89 90 93 96 92 88 83 84 89 94 95 97 98 96 94 93 91 89 89 87 86 87 86 86 90 92 91 91 88 88 91 95 98 97 100 102 103 102
86 86 90 92 93 94 92 93 95 94 93 93 94 92 86 81 75 78 77 76 77 76 75 74 74 72 71 69 69 71 74 75 77 80 83 80 81 81 78 80 77 80 84 86 86 89 93 96 99
60 65 70 77 83 87 90 92 94 94 92 87 82 76 73 71 71 69 63 58 56 56 57 57 59 60 61 62 64 66 69 69 70 73 75 73 72 73 74 78 77 74 78 78 76 79 86 90 93
54 56 56 59 63 67 72 77 77 75 70 69 68 66 62 58 54 48 46 44 44 45 44 45 46 48 50 52 52 54 56 57 59 62 66 68 69 70 72 73 73 74 71 70 71 77 83 88 91
46 47 48 52 53 55 56 55 55 57 59 56 52 45 39 34 32 31 32 32 32 32 33 33 37 39 42 43 44 46 46 47 50 53 56 59 62 65 68 69 69 69 69 69 71 75 78 83 86
45 44 44 44 45 46 47 46 43 41 37 33 31 30 28 25 26 28 28 25 26 26 27 27 28 29 29 31 33 36 38 40 43 46 51 53 54 57 60 64 65 66 66 67 70 72 74 75 78
39 38 39 38 37 34 30 26 22 22 17 16 16 19 20 19 21 23 26 25 24 23 21 21 22 23 24 24 26 29 33 36 38 41 43 46 49 52 55 58 61 63 64 65 66 66 66 68 70
29 27 23 20 17 12 11 7 8 6 3 8 7 9 13 13 12 15 15 13 15 20 23 23 23 22 22 21 22 23 26 28 32 36 39 42 45 48 52 55 57 59 60 62 63 63 63 66 67
7 9 8 3 1 0 4 2 4 3 7 7 10 7 17 10 11 16 14 15 15 20 21 21 19 21 23 22 21 21 23 25 28 30 32 35 39 42 44 46 49 52 55 58 59 59 59 60 62
Wind_Direction
242 241 241 238 241 242 244 245 248 252 250 247 249 250 256 258 253 256 258 256 257 256 254 256 255 253 254 257 258 260 261 264 265 265 266 268 269 271 271 272 268 265 268 271 273 277 281 284 288
245 242 238 237 239 240 242 240 247 242 242 243 246 250 248 250 252 253 256 258 259 258 257 256 257 256 256 257 259 260 260 261 262 264 266 267 268 269 270 272 271 268 264 268 274 270 276 279 280
241 242 239 239 237 240 243 239 244 243 243 240 247 247 248 259 255 256 259 257 255 257 257 258 259 259 256 255 259 260 260 261 265 265 266 266 267 266 266 269 270 269 267 268 269 271 267 271 276
239 239 237 238 239 241 242 239 244 246 248 247 248 248 252 257 261 263 263 261 259 254 253 256 260 257 256 251 248 249 254 259 262 266 262 264 266 265 264 264 263 264 265 268 269 270 270 269 267
240 238 240 238 240 240 241 240 243 247 249 252 249 250 253 257 263 264 263 264 265 262 258 257 264 263 254 256 245 251 249 260 268 276 271 271 271 261 262 263 265 266 265 265 267 268 268 267 268
238 240 237 240 241 239 240 242 239 247 251 251 255 252 256 256 260 262 264 265 265 266 266 263 264 267 266 263 263 260 265 270 271 278 278 277 273 268 275 267 266 264 263 266 267 266 264 264 265
243 241 239 240 242 241 242 241 242 243 248 249 253 255 255 259 261 265 264 264 266 267 268 267 266 268 271 272 270 270 269 273 275 274 276 279 276 270 274 275 272 266 268 268 268 269 267 263 262
237 240 243 245 244 242 242 243 244 243 244 249 251 252 251 252 254 256 259 261 262 262 261 265 266 266 266 266 267 267 267 271 271 269 269 275 280 276 269 270 268 268 271 270 277 282 270 268 266
238 237 239 242 245 245 247 244 245 245 245 247 248 250 250 252 252 251 256 260 260 260 261 260 263 264 264 264 266 266 267 269 267 270 269 269 271 274 276 275 275 280 275 274 274 273 278 275 273
238 238 239 241 244 247 246 246 248 250 250 249 250 250 250 250 253 253 254 257 259 258 258 263 266 264 265 265 264 263 264 265 265 266 267 268 270 272 271 273 274 275 274 270 271 276 275 271 271
238 239 241 242 244 246 246 246 248 249 251 252 255 255 253 252 253 254 254 255 258 261 261 259 261 265 267 266 265 264 263 264 266 266 266 266 266 269 269 269 271 273 271 275 274 274 277 276 275
239 240 241 241 245 246 247 248 249 250 251 252 254 254 255 256 257 257 261 262 260 263 262 263 261 262 264 266 266 265 264 265 265 264 266 267 267 264 266 267 269 271 269 272 274 277 273 273 277
242 243 243 244 245 247 248 251 253 252 253 253 254 255 257 257 257 258 259 260 260 261 262 264 263 264 263 263 264 264 265 265 265 265 265 264 265 265 263 266 264 265 268 269 270 272 272 273 271
244 242 246 249 249 247 248 250 252 252 254 256 256 256 258 260 260 260 260 260 259 261 261 260 260 261 261 262 263 263 264 264 265 265 265 266 265 264 261 262 262 263 263 265 269 270 270 269 270
244 245 245 249 250 249 249 251 254 254 255 256 256 258 259 259 259 260 261 262 264 264 263 261 260 261 262 262 263 263 264 264 264 265 265 266 266 264 262 262 260 259 261 263 264 267 267 269 268
245 248 250 252 253 254 253 253 256 257 256 257 258 259 260 263 262 262 263 264 263 263 263 264 264 263 264 262 262 262 263 263 265 265 265 266 266 266 264 263 263 262 263 262 262 263 266 266 268
243 246 246 248 251 254 254 257 257 258 259 259 258 260 262 264 263 263 264 264 264 264 264 264 264 264 263 263 264 263 263 264 264 264 265 265 266 264 263 263 263 263 264 263 262 260 262 265 267
242 245 249 250 254 253 256 259 258 258 259 262 262 262 264 265 265 264 263 263 264 265 265 264 265 264 263 263 263 262 262 263 263 264 263 263 264 263 263 264 263 262 262 262 263 262 261 261 263
242 244 248 250 251 256 256 258 260 262 264 266 268 268 269 268 267 265 266 266 265 264 265 264 264 264 263 263 262 260 259 260 261 261 261 262 263 263 263 262 261 261 261 260 262 262 263 261 260
242 244 247 249 253 256 259 261 265 267 267 267 269 270 271 270 267 266 265 264 264 264 263 262 261 262 263 263 262 262 260 260 260 259 259 260 261 262 263 263 262 261 261 262 262 261 261 262 262
245 247 251 251 253 256 259 260 263 265 267 268 269 271 272 272 273 274 272 270 268 266 264 263 265 266 268 269 269 268 267 266 264 262 262 262 263 263 264 263 263 264 263 262 262 264 263 261 262
247 251 254 257 257 259 261 263 264 266 269 270 273 274 275 277 277 277 274 269 267 268 268 268 270 270 270 268 265 264 263 262 262 262 262 262 263 263 263 265 265 266 266 264 263 263 263 263 262
248 251 253 256 258 261 262 263 266 269 270 272 275 278 278 276 279 275 276 276 273 272 273 271 270 268 266 265 262 261 261 261 261 261 261 261 262 263 263 263 260 260 259 258 258 259 260 261 259
249 252 255 256 259 260 263 267 268 270 274 278 277 278 280 281 281 282 282 280 278 276 275 272 270 269 268 267 264 261 260 260 258 258 257 259 262 261 258 258 259 259 256 254 255 254 254 255 257
255 256 257 260 262 265 266 269 271 274 275 278 280 282 284 284 282 282 281 277 274 271 270 271 272 270 267 266 263 260 260 258 255 255 256 256 257 256 257 258 258 257 255 255 254 253 252 253 254
254 260 263 264 265 264 265 269 274 277 279 280 282 282 283 283 278 275 275 278 281 284 283 279 277 276 274 271 267 265 263 261 257 255 255 254 253 254 256 257 258 257 256 255 255 255 255 255 255
258 261 261 265 268 272 275 277 275 272 275 277 283 288 286 282 278 277 282 287 290 291 290 286 281 277 275 273 269 265 263 261 258 256 255 255 256 256 256 256 257 257 257 257 257 259 260 259 258
257 261 266 269 272 272 271 270 268 267 274 277 278 278 276 276 280 280 283 290 293 293 291 293 292 291 282 275 267 262 259 256 255 253 252 254 255 255 255 255 256 258 259 259 259 259 258 258 258
260 263 265 264 257 251 264 252 242 224 245 277 294 307 308 309 315 311 307 325 333 326 321 317 309 302 298 295 287 278 272 267 264 260 258 257 257 257 257 258 257 258 258 258 258 258 258 258 256
226 225 223 224 287 116 199 247 291 297 332 333 349 347 338 322 331 335 342 349 339 332 317 329 326 317 311 301 296 287 282 277 274 273 270 267 264 263 261 261 261 260 259 258 258 257 257 257 257
Height
10811 10814 10818 10821 10825 10825 10825 10833 10833 10838 10839 10838 10842 10845 10846 10849 10846 10848 10849 10851 10854 10856 10859 10861 10862 10864 10868 10870 10870 10873 10874 10876 10878 10879 10881 10881 10882 10883 10884 10885 10886 10887 10887 10887 10888 10889 10889 10889 10891
10804 10808 10812 10816 10819 10819 10822 10829 10833 10830 10831 10836 10838 10841 10843 10841 10844 10843 10845 10847 10849 10850 10853 10855 10856 10858 10861 10863 10864 10866 10868 10869 10871 10873 10874 10875 10875 10876 10877 10878 10879 10880 10881 10883 10883 10885 10885 10885 10886
10796 10801 10805 10808 10810 10812 10824 10824 10826 10822 10828 10831 10833 10836 10838 10836 10841 10839 10841 10843 10845 10846 10847 10850 10850 10853 10854 10856 10858 10860 10860 10863 10865 10866 10867 10868 10868 10869 10870 10871 10872 10874 10876 10877 10878 10878 10880 10881 10881
10787 10792 10797 10801 10801 10811 10817 10820 10813 10821 10823 10826 10828 10831 10833 10833 10835 10836 10838 10840 10841 10843 10844 10845 10845 10848 10848 10850 10851 10853 10856 10857 10857 10859 10859 10860 10861 10861 10862 10862 10864 10866 10868 10869 10871 10872 10874 10875 10876
10778 10783 10790 10792 10792 10806 10810 10808 10813 10815 10818 10821 10823 10827 10827 10829 10829 10832 10834 10835 10837 10838 10839 10840 10840 10842 10844 10846 10848 10848 10849 10851 10853 10853 10853 10854 10854 10854 10854 10855 10856 10858 10860 10862 10862 10864 10866 10868 10869
10769 10774 10780 10782 10785 10800 10799 10801 10806 10810 10812 10814 10817 10819 10821 10825 10825 10827 10829 10831 10832 10833 10834 10835 10837 10837 10838 10839 10840 10843 10843 10845 10846 10848 10849 10849 10850 10849 10849 10849 10849 10850 10851 10854 10855 10855 10857 10858 10860
10758 10764 10769 10773 10783 10786 10791 10793 10799 10801 10806 10808 10808 10814 10814 10817 10819 10823 10822 10824 10826 10828 10829 10830 10830 10831 10832 10833 10834 10835 10837 10838 10840 10840 10841 10843 10843 10844 10843 10844 10844 10844 10845 10847 10847 10847 10847 10849 10850
10746 10752 10758 10765 10772 10778 10779 10785 10789 10793 10795 10797 10800 10805 10811 10806 10811 10811 10813 10816 10817 10820 10821 10823 10824 10824 10825 10826 10828 10829 10830 10832 10833 10833 10834 10834 10835 10837 10836 10837 10838 10839 10840 10841 10841 10840 10840 10841 10841
10733 10740 10748 10755 10761 10764 10770 10775 10778 10782 10784 10788 10793 10796 10802 10797 10801 10801 10805 10806 10808 10810 10813 10815 10816 10817 10818 10819 10821 10822 10823 10824 10825 10826 10828 10828 10828 10828 10828 10829 10829 10830 10831 10833 10835 10834 10834 10834 10834
10721 10729 10738 10740 10749 10755 10760 10764 10767 10770 10773 10780 10782 10786 10787 10788 10788 10793 10795 10796 10797 10800 10802 10805 10808 10810 10811 10811 10813 10813 10814 10816 10817 10818 10819 10821 10821 10821 10821 10821 10820 10823 10824 10824 10825 10826 10827 10827 10827
10709 10721 10720 10732 10737 10742 10746 10750 10754 10759 10762 10770 10770 10772 10775 10777 10779 10780 10784 10786 10788 10789 10791 10794 10796 10798 10800 10801 10803 10804 10806 10807 10807 10809 10809 10810 10812 10812 10813 10814 10812 10813 10813 10814 10816 10817 10818 10819 10820
10697 10704 10712 10719 10725 10729 10733 10739 10742 10745 10751 10754 10757 10759 10762 10764 10768 10769 10771 10774 10776 10778 10778 10780 10782 10784 10786 10789 10790 10791 10793 10795 10796 10797 10799 10800 10801 10801 10803 10804 10804 10805 10805 10805 10805 10807 10810 10809 10810
10684 10691 10699 10705 10711 10716 10722 10726 10729 10732 10735 10738 10743 10745 10748 10751 10754 10757 10758 10760 10763 10764 10764 10766 10769 10769 10770 10773 10774 10777 10778 10781 10783 10784 10785 10787 10787 10789 10790 10790 10794 10793 10796 10794 10796 10795 10798 10799 10800
10669 10679 10687 10693 10698 10703 10707 10710 10717 10721 10719 10725 10728 10730 10733 10736 10739 10741 10745 10746 10747 10749 10749 10750 10750 10753 10753 10756 10757 10759 10761 10762 10765 10769 10770 10771 10773 10775 10775 10777 10779 10781 10783 10783 10784 10784 10786 10786 10787
10657 10665 10673 10680 10683 10688 10693 10695 10703 10705 10706 10709 10714 10716 10718 10720 10721 10724 10726 10730 10731 10731 10731 10732 10734 10734 10735 10738 10739 10739 10741 10744 10747 10749 10753 10753 10755 10758 10760 10762 10764 10766 10770 10771 10772 10770 10771 10771 10775
10647 10654 10661 10664 10671 10673 10677 10678 10691 10686 10693 10692 10697 10702 10703 10703 10704 10706 10708 10710 10710 10711 10712 10713 10713 10714 10715 10715 10719 10718 10719 10723 10725 10728 10732 10733 10735 10739 10742 10745 10748 10751 10755 10758 10758 10758 10756 10757 10760
10637 10643 10649 10654 10658 10660 10663 10664 10671 10673 10674 10675 10680 10684 10683 10685 10685 10686 10689 10688 10689 10689 10690 10689 10691 10691 10693 10692 10695 10699 10698 10703 10706 10705 10710 10711 10712 10716 10720 10725 10729 10732 10736 10739 10742 10743 10743 10743 10744
10625 10632 10637 10645 10645 10648 10650 10650 10653 10658 10661 10660 10661 10667 10665 10664 10662 10664 10665 10666 10666 10667 10666 10666 10664 10667 10667 10670 10672 10675 10678 10678 10680 10683 10685 10688 10688 10690 10695 10704 10707 10711 10716 10721 10722 10724 10726 10729 10727
10616 10622 10627 10634 10634 10633 10635 10639 10636 10646 10649 10650 10647 10648 10646 10643 10639 10641 10644 10645 10643 10643 10642 10639 10639 10636 10640 10643 10647 10647 10652 10653 10655 10657 10660 10663 10661 10664 10669 10679 10685 10689 10693 10698 10702 10704 10705 10708 10709
10606 10610 10616 10620 10622 10623 10625 10628 10631 10631 10631 10631 10630 10629 10624 10621 10618 10622 10622 10621 10620 10620 10617 10610 10607 10607 10609 10613 10617 10621 10626 10627 10630 10632 10635 10638 10635 10638 10645 10659 10663 10667 10672 10677 10682 10683 10685 10688 10687
10597 10602 10605 10607 10609 10612 10611 10617 10615 10614 10613 10612 10613 10611 10606 10600 10598 10601 10600 10601 10598 10594 10588 10584 10583 10586 10590 10591 10594 10596 10602 10605 10607 10608 10610 10612 10615 10620 10625 10633 10641 10647 10651 10656 10658 10659 10660 10665 10666
10588 10589 10592 10595 10597 10599 10600 10604 10600 10597 10596 10597 10596 10592 10583 10583 10584 10588 10581 10577 10568 10567 10565 10564 10564 10565 10566 10568 10569 10571 10573 10579 10579 10583 10589 10588 10590 10596 10604 10610 10620 10625 10626 10628 10633 10637 10638 10640 10647
10575 10579 10581 10583 10584 10585 10587 10586 10582 10583 10586 10583 10577 10572 10567 10566 10569 10560 10557 10553 10549 10547 10546 10545 10543 10543 10541 10543 10545 10547 10550 10554 10558 10560 10563 10568 10571 10578 10584 10588 10593 10596 10599 10603 10608 10611 10613 10615 10618
10565 10567 10569 10570 10571 10572 10573 10573 10571 10570 10567 10566 10561 10554 10552 10552 10548 10544 10540 10536 10534 10531 10530 10527 10526 10526 10525 10525 10527 10529 10532 10535 10538 10541 10544 10550 10555 10556 10559 10563 10568 10573 10575 10579 10584 10587 10587 10589 10593
10556 10558 10559 10561 10560 10562 10561 10560 10562 10558 10555 10551 10546 10543 10541 10538 10534 10530 10528 10525 10523 10520 10517 10515 10512 10511 10511 10510 10511 10513 10516 10519 10521 10523 10527 10530 10534 10537 10540 10543 10547 10549 10555 10559 10562 10562 10565 10568 10569
10547 10549 10551 10550 10551 10550 10550 10550 10549 10548 10543 10539 10534 10531 10528 10525 10523 10522 10518 10516 10512 10509 10507 10505 10503 10501 10500 10500 10501 10501 10502 10505 10508 10511 10514 10515 10518 10520 10523 10526 10529 10532 10535 10538 10540 10541 10544 10546 10548
10540 10541 10541 10543 10543 10541 10541 10540 10539 10536 10533 10529 10525 10522 10520 10518 10517 10515 10512 10509 10506 10503 10500 10499 10496 10494 10493 10492 10492 10491 10492 10494 10496 10498 10499 10500 10503 10506 10508 10510 10512 10514 10517 10519 10521 10523 10526 10528 10528
10532 10534 10534 10535 10533 10533 10533 10532 10530 10528 10528 10525 10523 10521 10518 10515 10512 10510 10507 10505 10502 10500 10497 10494 10491 10489 10487 10486 10485 10484 10483 10484 10485 10486 10486 10488 10489 10490 10492 10493 10495 10498 10500 10502 10503 10504 10506 10506 10507
10528 10527 10528 10528 10529 10529 10529 10529 10528 10527 10525 10524 10522 10519 10516 10513 10511 10508 10505 10501 10499 10496 10493 10490 10488 10485 10483 10481 10481 10481 10480 10478 10477 10477 10479 10479 10479 10479 10479 10480 10481 10482 10483 10483 10484 10485 10487 10487 10487
10523 10525 10527 10528 10529 10530 10530 10530 10528 10528 10526 10523 10521 10519 10517 10514 10512 10509 10505 10502 10500 10498 10494 10490 10485 10483 10481 10479 10477 10476 10475 10474 10472 10471 10471 10470 10469 10469 10469 10468 10468 10468 10468 10468 10468 10469 10469 10469 10469